Regional Weather Roundup
Issued by NWS

Home | Current Version | Previous Version | Graphics & Text | Print | Product List | Glossary On
Versions: 1 2 3 4 5 6 7 8 9 10 11 12 13 14 15 16 17 18 19 20 21 22 23 24 25 26 27 28 29 30 31 32 33 34 35 36 37 38 39 40 41 42 43 44 45 46 47 48 49 50
144
ASUS43 KLMK 250202
RWRKY
KENTUCKY REGIONAL WEATHER ROUNDUP
NATIONAL WEATHER SERVICE LOUISVILLE KY
900 PM EST FRI NOV 24 2017

NOTE "FAIR" INDICATES FEW OR NO CLOUDS BELOW 12,000 FEET
WITH NO SIGNIFICANT WEATHER AND/OR OBSTRUCTIONS TO VISIBILITY.

KYZ001>023-026-027-061>063-070>075-250300-
WESTERN AND SOUTH CENTRAL KENTUCKY

CITY           SKY/WX    TMP DP  RH WIND       PRES   REMARKS
PADUCAH        PTCLDY    55  31  39 VRB6      29.79F
HENDERSON      CLEAR     53  33  46 S15       29.77F
OWENSBORO      CLEAR     48  32  53 S10       29.79F
HOPKINSVILLE   CLEAR     54  25  32 S9        29.85S
BOWLING GREEN  CLEAR     50  29  44 S8        29.87S
GLASGOW        NOT AVBL
$$

KYZ024-025-028>034-038-045-046-053-250300-
NORTH CENTRAL KENTUCKY

CITY           SKY/WX    TMP DP  RH WIND       PRES   REMARKS
LOUISVILLE/SDF CLEAR     54  26  34 S10       29.79F
LOUISVILLE/LOU CLEAR     48  29  47 S9        29.81F
FORT KNOX      CLEAR     50  26  39 S12       29.79F
$$

KYZ035>037-039>044-047>052-055>060-089>105-250300-
NORTHEAST KENTUCKY

CITY           SKY/WX    TMP DP  RH WIND       PRES   REMARKS
LEXINGTON      PTCLDY    48  25  40 S8        29.85S
COVINGTON      CLOUDY    50  28  42 S12       29.77F
FRANKFORT      PTCLDY    50  24  36 S6        29.82F
$$

KYZ054-064>069-076>088-106>120-250300-
SOUTHEAST KENTUCKY

CITY           SKY/WX    TMP DP  RH WIND       PRES   REMARKS
JACKSON        MOCLDY    52  30  43 S5        29.87S
LONDON         CLOUDY    51  35  54 S5        29.90R
SOMERSET       NOT AVBL
MIDDLESBORO    MOCLDY    42  37  82 CALM      29.94R
MONTICELLO     PTCLDY    40  35  83 VRB7      29.92R
$$





USA.gov is the U.S. government's official web portal to all federal, state and local government web resources and services.